• In Hungary
  • List of Countries
  • For 7 days
  • Water Temperature
  • Satellite Maps
  • Weather Map
  • News
  • Weather Widgets
  • user-avatar
    Login

    Hourly Weather Roquetas de Mar

    Today, 23 September, Sunday

    Time Temperature Precipitation Wind Pressure Humidity
    00:00 +29°C° 0 mm 2 mps 766 mmHg 45%
    01:00 +29°C° 0 mm 2 mps 766 mmHg 44%
    02:00 +29°C° 0 mm 2 mps 765 mmHg 42%
    03:00 +28°C° 0 mm 2 mps 765 mmHg 41%
    04:00 +28°C° 0 mm 2 mps 765 mmHg 40%
    05:00 +28°C° 0 mm 2 mps 765 mmHg 39%
    06:00 +27°C° 0 mm 3 mps 765 mmHg 39%
    07:00 +29°C° 0 mm 3 mps 765 mmHg 36%
    08:00 +31°C° 0 mm 3 mps 765 mmHg 32%
    09:00 +33°C° 0 mm 3 mps 766 mmHg 29%
    10:00 +34°C° 0 mm 4 mps 765 mmHg 28%
    11:00 +35°C° 0 mm 4 mps 765 mmHg 27%
    12:00 +36°C° 0 mm 4 mps 765 mmHg 26%
    13:00 +36°C° 0 mm 4 mps 765 mmHg 27%
    14:00 +36°C° 0 mm 4 mps 765 mmHg 28%
    15:00 +36°C° 0 mm 4 mps 764 mmHg 28%
    16:00 +35°C° 0 mm 4 mps 764 mmHg 31%
    17:00 +34°C° 0 mm 4 mps 764 mmHg 34%
    18:00 +34°C° 0 mm 4 mps 764 mmHg 37%
    19:00 +33°C° 0 mm 3 mps 764 mmHg 39%
    20:00 +31°C° 0 mm 3 mps 765 mmHg 41%
    21:00 +31°C° 0 mm 3 mps 765 mmHg 42%
    22:00 +31°C° 0 mm 3 mps 765 mmHg 42%
    23:00 +30°C° 0 mm 3 mps 765 mmHg 42%

    Tomorrow, 24 September, Monday

    Time Temperature Precipitation Wind Pressure Humidity
    00:00 +30°C° 0 mm 2 mps 765 mmHg 41%
    01:00 +29°C° 0 mm 2 mps 764 mmHg 43%
    02:00 +29°C° 0 mm 2 mps 764 mmHg 44%
    03:00 +28°C° 0 mm 2 mps 764 mmHg 45%
    04:00 +28°C° 0 mm 2 mps 764 mmHg 46%
    05:00 +28°C° 0 mm 2 mps 764 mmHg 46%
    06:00 +28°C° 0 mm 3 mps 764 mmHg 47%
    07:00 +29°C° 0 mm 3 mps 764 mmHg 42%
    08:00 +31°C° 0 mm 3 mps 765 mmHg 37%
    09:00 +34°C° 0 mm 3 mps 765 mmHg 33%
    10:00 +34°C° 0 mm 3 mps 765 mmHg 32%
    11:00 +35°C° 0 mm 4 mps 765 mmHg 31%
    12:00 +36°C° 0 mm 4 mps 764 mmHg 30%
    13:00 +36°C° 0 mm 4 mps 764 mmHg 31%
    14:00 +36°C° 0 mm 4 mps 764 mmHg 32%
    15:00 +36°C° 0 mm 5 mps 763 mmHg 33%
    16:00 +35°C° 0 mm 4 mps 763 mmHg 37%
    17:00 +34°C° 0 mm 4 mps 763 mmHg 41%
    18:00 +33°C° 0 mm 4 mps 763 mmHg 44%
    19:00 +32°C° 0 mm 4 mps 764 mmHg 48%
    20:00 +32°C° 0 mm 4 mps 764 mmHg 52%
    21:00 +30°C° 0 mm 4 mps 765 mmHg 55%
    22:00 +30°C° 0 mm 4 mps 765 mmHg 57%
    23:00 +29°C° 0 mm 4 mps 765 mmHg 59%

    Day after tomorrow, 25 September, Tuesday

    Time Temperature Precipitation Wind Pressure Humidity
    00:00 +29°C° 0 mm 4 mps 765 mmHg 61%
    01:00 +29°C° 0 mm 4 mps 765 mmHg 61%
    02:00 +28°C° 0 mm 4 mps 764 mmHg 61%
    03:00 +28°C° 0 mm 4 mps 764 mmHg 61%
    04:00 +28°C° 0 mm 4 mps 764 mmHg 61%
    05:00 +28°C° 0 mm 4 mps 764 mmHg 62%
    06:00 +27°C° 0 mm 4 mps 764 mmHg 62%
    07:00 +28°C° 0 mm 5 mps 765 mmHg 57%
    08:00 +30°C° 0 mm 5 mps 765 mmHg 51%
    09:00 +32°C° 0 mm 5 mps 765 mmHg 46%
    10:00 +33°C° 0 mm 6 mps 765 mmHg 45%
    11:00 +33°C° 0 mm 6 mps 765 mmHg 44%
    12:00 +34°C° 0 mm 6 mps 765 mmHg 42%
    13:00 +34°C° 0 mm 7 mps 765 mmHg 45%
    14:00 +34°C° 0 mm 7 mps 764 mmHg 48%
    15:00 +34°C° 0 mm 7 mps 764 mmHg 51%
    16:00 +33°C° 0.6 mm 7 mps 764 mmHg 57%
    17:00 +32°C° 0.6 mm 7 mps 764 mmHg 63%
    18:00 +30°C° 0.6 mm 7 mps 765 mmHg 69%
    19:00 +29°C° 0.2 mm 7 mps 765 mmHg 70%
    20:00 +29°C° 0.2 mm 7 mps 766 mmHg 72%
    21:00 +28°C° 0.2 mm 7 mps 766 mmHg 74%
    22:00 +28°C° 0.1 mm 7 mps 766 mmHg 74%
    23:00 +28°C° 0.1 mm 7 mps 766 mmHg 74%

    26 September, Wednesday

    Time Temperature Precipitation Wind Pressure Humidity
    00:00 +27°C° 0.1 mm 7 mps 766 mmHg 74%
    01:00 +27°C° 0.1 mm 6 mps 766 mmHg 74%
    02:00 +27°C° 0.1 mm 6 mps 766 mmHg 74%
    03:00 +27°C° 0.1 mm 6 mps 766 mmHg 74%
    04:00 +27°C° 0 mm 6 mps 766 mmHg 74%
    05:00 +27°C° 0 mm 6 mps 766 mmHg 73%
    06:00 +27°C° 0 mm 6 mps 766 mmHg 73%
    07:00 +27°C° 0 mm 6 mps 767 mmHg 69%
    08:00 +28°C° 0 mm 6 mps 767 mmHg 66%
    09:00 +28°C° 0 mm 6 mps 767 mmHg 62%
    10:00 +29°C° 0.2 mm 6 mps 767 mmHg 59%
    11:00 +30°C° 0.2 mm 7 mps 767 mmHg 56%
    12:00 +32°C° 0.2 mm 7 mps 767 mmHg 53%
    13:00 +32°C° 0.4 mm 7 mps 767 mmHg 54%
    14:00 +32°C° 0.4 mm 7 mps 766 mmHg 54%
    15:00 +32°C° 0.4 mm 7 mps 766 mmHg 55%
    16:00 +30°C° 0.3 mm 7 mps 766 mmHg 58%
    17:00 +30°C° 0.3 mm 7 mps 766 mmHg 61%
    18:00 +29°C° 0.3 mm 7 mps 767 mmHg 64%
    19:00 +29°C° 0.2 mm 6 mps 767 mmHg 67%
    20:00 +28°C° 0.2 mm 6 mps 767 mmHg 69%
    21:00 +28°C° 0.2 mm 6 mps 768 mmHg 71%
    22:00 +28°C° 0.2 mm 6 mps 768 mmHg 72%
    23:00 +27°C° 0.2 mm 6 mps 768 mmHg 73%

    27 September, Thursday

    Time Temperature Precipitation Wind Pressure Humidity
    00:00 +27°C° 0.2 mm 5 mps 767 mmHg 74%
    01:00 +27°C° 0.2 mm 5 mps 767 mmHg 75%
    02:00 +27°C° 0.2 mm 6 mps 767 mmHg 76%
    03:00 +26°C° 0.2 mm 6 mps 767 mmHg 77%
    04:00 +26°C° 0.1 mm 5 mps 767 mmHg 77%
    05:00 +26°C° 0.1 mm 5 mps 767 mmHg 77%
    06:00 +26°C° 0.1 mm 5 mps 767 mmHg 78%
    07:00 +27°C° 0 mm 5 mps 767 mmHg 73%
    08:00 +28°C° 0 mm 5 mps 768 mmHg 68%
    09:00 +29°C° 0 mm 6 mps 768 mmHg 63%
    10:00 +29°C° 0 mm 6 mps 768 mmHg 61%
    11:00 +30°C° 0 mm 6 mps 767 mmHg 59%
    12:00 +30°C° 0 mm 6 mps 767 mmHg 58%
    13:00 +30°C° 0.2 mm 6 mps 767 mmHg 57%
    14:00 +30°C° 0.2 mm 6 mps 766 mmHg 57%
    15:00 +30°C° 0.2 mm 6 mps 766 mmHg 57%
    16:00 +30°C° 0.3 mm 6 mps 766 mmHg 60%
    17:00 +29°C° 0.3 mm 6 mps 766 mmHg 63%
    18:00 +29°C° 0.3 mm 6 mps 766 mmHg 66%
    19:00 +28°C° 0.2 mm 6 mps 766 mmHg 69%
    20:00 +28°C° 0.2 mm 6 mps 767 mmHg 71%
    21:00 +27°C° 0.2 mm 6 mps 767 mmHg 73%
    22:00 +27°C° 0.1 mm 6 mps 767 mmHg 75%
    23:00 +27°C° 0.1 mm 5 mps 766 mmHg 76%

    28 September, Friday

    Time Temperature Precipitation Wind Pressure Humidity
    00:00 +26°C° 0.1 mm 5 mps 766 mmHg 77%
    01:00 +26°C° 0 mm 5 mps 766 mmHg 77%
    02:00 +26°C° 0 mm 5 mps 765 mmHg 78%
    03:00 +26°C° 0 mm 4 mps 765 mmHg 78%
    04:00 +26°C° 0.1 mm 4 mps 765 mmHg 79%
    05:00 +25°C° 0.1 mm 4 mps 765 mmHg 79%
    06:00 +25°C° 0.1 mm 4 mps 765 mmHg 80%
    07:00 +26°C° 0 mm 4 mps 765 mmHg 73%
    08:00 +27°C° 0 mm 4 mps 765 mmHg 67%
    09:00 +28°C° 0 mm 4 mps 765 mmHg 61%
    10:00 +29°C° 0 mm 5 mps 765 mmHg 58%
    11:00 +30°C° 0 mm 5 mps 764 mmHg 56%
    12:00 +32°C° 0 mm 5 mps 764 mmHg 53%
    13:00 +32°C° 0.3 mm 5 mps 764 mmHg 54%
    14:00 +32°C° 0.3 mm 5 mps 763 mmHg 55%
    15:00 +32°C° 0.3 mm 5 mps 762 mmHg 55%
    16:00 +30°C° 0.5 mm 5 mps 762 mmHg 59%
    17:00 +30°C° 0.5 mm 5 mps 762 mmHg 63%
    18:00 +29°C° 0.5 mm 5 mps 762 mmHg 67%
    19:00 +29°C° 0.2 mm 4 mps 763 mmHg 68%
    20:00 +28°C° 0.2 mm 4 mps 763 mmHg 70%
    21:00 +28°C° 0.2 mm 4 mps 763 mmHg 72%
    22:00 +28°C° 0.1 mm 3 mps 763 mmHg 74%
    23:00 +27°C° 0.1 mm 3 mps 763 mmHg 75%
    Show more